Weather in Znamenka

Russia / Kaliningrad Oblast     54°21′56″N   21°22′00″E
temp.,
°C
wind,
m/s
gust,
m/s
humid.,
%
clouds,
%
prec.,
mm/h
press.,
hPa
HPBL,
m
11 april, sun
sun1123:00+4ne3696100 1.1 1019251
02:00+4ne3696100 1.6 1020260
05:00+4ene3696100 0.0 1020253
08:00+6ese4692100 0.0 1020256
11:00+12se587796 0.0 1019627
14:00+17sse61059100 0.0 10171478
17:00+16sse6125980 0.0 1016718
20:00+13sse61465100 0.0 1017372
12 april, mon
mon1223:00+11sse61471100 0.0 1017419
02:00+11sse61372100 0.0 1017413
05:00+10sse61280100 0.1 1017368
08:00+9sse61287100 0.9 1017464
11:00+9sse51084100 0.0 1017456
14:00+12sse577794 0.0 1017691
17:00+10nw4587100 0.6 1017311
20:00+5nw6891100 0.8 1019436
13 april, tue
tue1323:00+3nw61091100 1.0 1020551
02:00+3nw61096100 1.4 1021599
05:00+3nw3991100 0.1 1022627
08:00+5nw5980100 0.1 1023663
11:00+6nw6764100 0.0 1024918
14:00+8nnw5651100 0.0 10241490
17:00+7n5656100 0.0 10241300
20:00+4n4764100 0.0 1025383
14 april, wed
wed1423:00+3nnw3781100 0.0 1025436
02:00+3n4789100 0.1 1024518
05:00+2n3889100 0.2 1024526
08:00+3nne4985100 0.3 1024624
11:00+5nne6971100 0.1 10241215
14:00+6ne71066100 0.2 10231340
17:00+6ne61077100 0.1 10231092
20:00+4nne51290100 0.4 1023914
15 april, thu
thu1523:00+3nne71386100 0.5 1023901
02:00+2nne81488100 1.1 1022840
05:00+2nne71597100 1.3 1022682
08:00+2nne71394100 2.5 1023732
11:00+3nne71385100 0.1 1024702
14:00+4ne61482100 0.2 1025792
17:00+5ne61480100 0.0 1025672
20:00+4n3683100 0.0 1025135